"2010-05-02 00:00:00",75340,9.31,313.4,6.373,1.346,9.62,103.7225,8.8,9.8,18.54,0,110.2,13.33,9.59,275.4
"2010-05-02 00:00:30",75341,8.79,311.8,5.835,1.149,8.7,103.7225,8.8,9.94,18.63,0,110.3,13.33,9.59,273.8
"2010-05-02 00:01:00",75342,9.73,318.9,6.868,1.299,9.91,103.7225,8.8,9.88,19.49,0,110.3,13.33,9.59,280.9
"2010-05-02 00:01:30",75343,9.89,319.9,6.991,1.477,10.73,103.7239,8.81,10.04,20.91,0,110.3,13.33,9.59,281.9
"2010-05-02 00:02:00",75344,9.63,320.8,6.402,1.351,11.07,103.736,8.84,10.06,21.07,0,110.3,13.33,9.62,282.8
"2010-05-02 00:02:30",75345,9.88,322.6,6.697,1.365,10.45,103.7406,8.85,9.95,21.23,0,110.3,13.33,9.63,284.6
"2010-05-02 00:03:00",75346,8.7,324.3,7.347,1.522,9.37,103.7524,8.88,9.83,21.44,0,110.3,13.33,9.66,286.3
"2010-05-02 00:03:30",75347,8.11,322,6.248,1.302,11.14,103.7563,8.89,10.09,21.79,0,110.3,13.33,9.67,284.0
"2010-05-02 00:04:00",75348,7.103,320.3,4.789,1.084,8.85,103.7563,8.89,9.94,22.07,0,110.3,13.33,9.67,282.3
"2010-05-02 00:04:30",75349,7.2,327.3,5.143,1.475,11.26,103.7563,8.89,10.02,21.19,0,110.3,13.33,9.67,289.3
"2010-05-02 00:05:00",75350,8.1,327.1,7.637,1.309,10.87,103.7563,8.89,10.08,21.79,0,110.3,13.33,9.67,289.1
"2010-05-02 00:05:30",75351,9.08,324.1,7.979,1.396,10.38,103.7563,8.89,10.13,22.43,0,110.3,13.33,9.67,286.1
"2010-05-02 00:06:00",75352,8.47,322.5,8.15,1.359,10.23,103.7637,8.91,9.99,21.17,0,110.3,13.33,9.69,284.5
"2010-05-02 00:06:30",75353,7.753,320.2,6.867,1.218,9.7,103.7797,8.95,10.07,20.57,0,110.3,13.32,9.73,282.2
"2010-05-02 00:07:00",75354,7.623,317.6,6.507,1.446,9.54,103.7857,8.97,10.07,20.11,0,110.3,13.32,9.75,279.6
"2010-05-02 00:07:30",75355,6.955,316.9,7.632,1.143,9.51,103.7896,8.98,10.09,19.67,0,110.3,13.32,9.76,278.9
"2010-05-02 00:08:00",75356,7.992,316.9,7.279,1.226,11.05,103.7902,8.98,10.18,20.32,0,110.3,13.32,9.76,278.9
"2010-05-02 00:08:30",75357,7.361,321.2,9.91,1.572,10.48,103.7902,8.98,10.21,21.75,0,110.3,13.32,9.76,283.2
"2010-05-02 00:09:00",75358,6.275,320.8,8.27,0.857,8.69,103.7707,8.93,9.97,21.89,0,110.3,13.32,9.71,282.8
"2010-05-02 00:09:30",75359,7.198,322.2,5.608,1.435,8.23,103.7578,8.89,9.92,20.85,0,110.3,13.32,9.68,284.2
"2010-05-02 00:10:00",75360,7.566,332.5,8.13,1.308,10.17,103.7747,8.94,10.07,20.45,0,110.3,13.32,9.72,294.5
"2010-05-02 00:10:30",75361,9.14,329.9,6.338,1.458,10.59,103.7843,8.96,10.14,20.41,0,110.3,13.32,9.75,291.9
"2010-05-02 00:11:00",75362,8.95,328,4.547,1.013,11.57,103.7902,8.98,10.07,21.02,0,110.3,13.32,9.76,290.0
"2010-05-02 00:11:30",75363,8.11,326.8,6.61,1.212,11.42,103.7899,8.98,10.19,20.74,0,110.3,13.32,9.76,288.8
"2010-05-02 00:12:00",75364,7.279,324.3,7.722,1.31,9.74,103.7899,8.98,10.08,20.86,0,110.3,13.32,9.76,286.3
"2010-05-02 00:12:30",75365,6.235,324.7,3.725,0.243,7.529,103.7899,8.98,9.94,21.24,0,110.3,13.35,9.76,286.7
"2010-05-02 00:13:00",75366,6.382,315,5.728,0.611,7.634,103.7902,8.98,9.94,21.32,0,110.3,13.32,9.76,277.0
"2010-05-02 00:13:30",75367,7.895,322.4,9.47,1.767,10.46,103.7899,8.98,10.18,21.26,0,110.3,13.32,9.76,284.4
"2010-05-02 00:14:00",75368,9.12,327.5,5.863,1.311,11.04,103.789,8.97,10.15,21,0,110.3,13.32,9.76,289.5
"2010-05-02 00:14:30",75369,8.24,333.7,6.142,1.499,10.95,103.7884,8.97,10.2,20.6,0,110.3,13.32,9.76,295.7
"2010-05-02 00:15:00",75370,7.956,338.1,6.331,1.308,10.97,103.7929,8.98,10.21,20.19,0,110.3,13.32,9.77,300.1
"2010-05-02 00:15:30",75371,7.346,329.1,6.263,1.21,8.19,103.8034,9.01,9.97,19.55,0,110.3,13.32,9.79,291.1
"2010-05-02 00:16:00",75372,5.756,328.6,2.668,0.225,7.236,103.8076,9.02,9.97,19.49,0,110.3,13.35,9.81,290.6
"2010-05-02 00:16:30",75373,5.843,324.1,4.732,0.475,7.652,103.815,9.04,10.01,19.73,0,110.3,13.36,9.82,286.1
"2010-05-02 00:17:00",75374,7.983,329.1,5.526,1.2,10.54,103.822,9.06,10.26,20.31,0,110.4,13.32,9.84,291.1
"2010-05-02 00:17:30",75375,9.51,327.5,6.497,1.282,11.59,103.8234,9.06,10.26,20.11,0,110.3,13.32,9.85,289.5
"2010-05-02 00:18:00",75376,8.04,327.2,7.151,1.48,11.45,103.8231,9.06,10.29,19.95,0,110.3,13.32,9.85,289.2
"2010-05-02 00:18:30",75377,7.567,323.4,6.576,1.722,10.3,103.8229,9.06,10.32,19.73,0,110.3,13.32,9.84,285.4
"2010-05-02 00:19:00",75378,5.848,323.4,1.852,1.071,9.09,103.8231,9.06,10.07,19.41,0,110.3,13.32,9.85,285.4
"2010-05-02 00:19:30",75379,4.292,319.7,1.829,0.233,7.261,103.8234,9.06,10.05,19.07,0,110.3,13.35,9.85,281.7
"2010-05-02 00:20:00",75380,5.556,328.8,7.885,1.215,9.81,103.8214,9.06,10.21,19.02,0,110.3,13.32,9.84,290.8
"2010-05-02 00:20:30",75381,6.304,331.5,8.26,1.355,10.56,103.8234,9.06,10.17,19.59,0,110.4,13.32,9.85,293.5
"2010-05-02 00:21:00",75382,7.225,336.7,7.986,0.984,12.07,103.8231,9.06,10.3,20.32,0,110.3,13.32,9.85,298.7
"2010-05-02 00:21:30",75383,6.142,327.6,7.142,1.237,10.76,103.824,9.06,10.26,20.22,0,110.3,13.32,9.85,289.6
"2010-05-02 00:22:00",75384,5.91,332.9,7.672,1.363,8.9,103.8231,9.06,10.15,20.12,0,110.3,13.32,9.85,294.9
"2010-05-02 00:22:30",75385,5.416,340.9,8.45,1.427,9.11,103.8237,9.06,10.24,20.22,0,110.3,13.32,9.85,302.9
"2010-05-02 00:23:00",75386,4.64,344.5,8.81,0.813,7.431,103.8237,9.06,10.07,19.93,0,110.3,13.32,9.85,306.5
"2010-05-02 00:23:30",75387,3.79,335.4,1.994,0.319,7.331,103.824,9.06,10.08,19.88,0,110.3,13.35,9.85,297.4
"2010-05-02 00:24:00",75388,4.662,339.2,4.9,1.579,9.41,103.8231,9.06,10.28,19.76,0,110.3,13.32,9.85,301.2
"2010-05-02 00:24:30",75389,6.953,336,6.239,1.341,11.56,103.8229,9.06,10.38,20,0,110.3,13.32,9.84,298.0
"2010-05-02 00:25:00",75390,7.733,333.7,7.779,1.158,10.95,103.8254,9.07,10.33,20.05,0,110.3,13.32,9.85,295.7
"2010-05-02 00:25:30",75391,6.519,331.3,6.623,1.111,9.07,103.8367,9.1,10.28,19.97,0,110.3,13.32,9.88,293.3
"2010-05-02 00:26:00",75392,7.443,328.7,7.403,1.111,9.73,103.8451,9.12,10.27,20.03,0,110.3,13.32,9.90,290.7
"2010-05-02 00:26:30",75393,5.565,322.1,6.598,0.768,8.49,103.8513,9.13,10.29,20.25,0,110.3,13.32,9.92,284.1
"2010-05-02 00:27:00",75394,4.94,315.1,3.534,0.213,7.757,103.8522,9.14,10.12,20.16,0,110.3,13.35,9.92,277.1
"2010-05-02 00:27:30",75395,7.199,325.5,8.5,1.406,10.3,103.8449,9.12,10.25,20.56,0,110.3,13.32,9.90,287.5
"2010-05-02 00:28:00",75396,7.911,332.4,8.3,1.128,11.49,103.8417,9.11,10.4,19.96,0,110.3,13.32,9.89,294.4
"2010-05-02 00:28:30",75397,7.918,329.3,7.138,1.165,11.82,103.8445,9.12,10.37,19.78,0,110.3,13.32,9.90,291.3
"2010-05-02 00:29:00",75398,6.754,328.5,5.233,1.184,9.8,103.8491,9.13,10.2,19.43,0,110.3,13.32,9.91,290.5
"2010-05-02 00:29:30",75399,6.039,323.7,6.955,1.322,8.16,103.8525,9.14,10.19,19.38,0,110.3,13.32,9.92,285.7
"2010-05-02 00:30:00",75400,6.327,324.4,6.482,1.444,9.9,103.8528,9.14,10.24,19.33,0,110.3,13.32,9.92,286.4
"2010-05-02 00:30:30",75401,4.982,321.6,3.855,0.171,7.9,103.8505,9.13,10.12,19.41,0,110.3,13.36,9.92,283.6
"2010-05-02 00:31:00",75402,5.595,329.9,9.45,1.511,10.63,103.8485,9.13,10.3,19.33,0,110.3,13.33,9.91,291.9
"2010-05-02 00:31:30",75403,6.964,344.8,6.906,1.225,11.76,103.8395,9.1,10.41,19.74,0,110.3,13.33,9.89,306.8
"2010-05-02 00:32:00",75404,5.724,342,7.89,1.193,10.48,103.8271,9.07,10.34,19.95,0,110.3,13.33,9.86,304.0
"2010-05-02 00:32:30",75405,4.609,329,7.686,1.297,9.06,103.8237,9.06,10.23,19.81,0,110.3,13.33,9.85,291.0
"2010-05-02 00:33:00",75406,4.741,339.5,5.172,0.808,7.868,103.824,9.06,10.2,19.3,0,110.3,13.33,9.85,301.5
"2010-05-02 00:33:30",75407,5.379,345.8,8.34,1.393,9.67,103.824,9.06,10.22,19.16,0,110.3,13.33,9.85,307.8
"2010-05-02 00:34:00",75408,3.706,355.9,8.45,0.27,7.678,103.8212,9.06,10.09,18.84,0,110.3,13.36,9.84,317.9
"2010-05-02 00:34:30",75409,4.857,349.6,12.39,1.1,10.27,103.8096,9.03,10.3,19.12,0,110.3,13.33,9.81,311.6
"2010-05-02 00:35:00",75410,5.511,357.8,6.498,0.964,12.28,103.8032,9.01,10.36,18.8,0,110.3,13.33,9.79,319.8
"2010-05-02 00:35:30",75411,4.873,352.8,8.55,1.267,10.99,103.7924,8.98,10.38,18.4,0,110.3,13.33,9.77,314.8
"2010-05-02 00:36:00",75412,3.319,339.8,9.1,1.151,8.05,103.7902,8.98,10.05,18.18,0,110.3,13.33,9.76,301.8
"2010-05-02 00:36:30",75413,2.43,355.8,8.48,0.478,7.143,103.7902,8.98,10.05,17.88,0,110.3,13.36,9.76,317.8
"2010-05-02 00:37:00",75414,3.72,345.9,11.91,1.73,8.85,103.7902,8.98,10.17,18.25,0,110.3,13.33,9.76,307.9
"2010-05-02 00:37:30",75415,4.846,337.8,8.76,1.147,8.41,103.7902,8.98,10.09,19.34,0,110.3,13.33,9.76,299.8
"2010-05-02 00:38:00",75416,5.604,342.8,6.742,1.228,11.69,103.7899,8.98,10.23,20.8,0,110.3,13.33,9.76,304.8
"2010-05-02 00:38:30",75417,4.629,346.8,10.91,1.372,9.85,103.7862,8.97,10.18,20.63,0,110.3,13.33,9.75,308.8
"2010-05-02 00:39:00",75418,5.928,349.4,9.07,1.147,11.95,103.782,8.96,10.35,20.68,0,110.3,13.33,9.74,311.4
"2010-05-02 00:39:30",75419,4.857,345,9.91,1.39,10.05,103.7812,8.95,10.16,20.97,0,110.3,13.33,9.74,307.0
"2010-05-02 00:40:00",75420,4.057,332.3,3.799,0.689,6.97,103.7783,8.95,10.01,21.26,0,110.3,13.36,9.73,294.3
"2010-05-02 00:40:30",75421,3.588,341.4,7.8,0.476,7.247,103.7749,8.94,10.01,21.59,0,110.3,13.36,9.72,303.4
"2010-05-02 00:41:00",75422,5.408,344.1,10.26,1.45,9.26,103.7578,8.89,10.06,21.53,0,110.3,13.33,9.68,306.1
"2010-05-02 00:41:30",75423,6.286,353.2,6.816,1.304,11.07,103.7572,8.89,10.14,21.28,0,110.3,13.33,9.68,315.2
"2010-05-02 00:42:00",75424,6.032,354.6,7.155,1.233,11.52,103.7569,8.89,10.24,21.49,0,110.3,13.33,9.68,316.6
"2010-05-02 00:42:30",75425,6.147,353.3,7.941,1.092,12.17,103.7563,8.89,10.29,21.49,0,110.3,13.33,9.67,315.3
"2010-05-02 00:43:00",75426,5.267,354,9.83,1.207,11.2,103.7563,8.89,10.2,22.23,0,110.3,13.33,9.67,316.0
"2010-05-02 00:43:30",75427,3.622,340.8,9.06,0.502,7.177,103.7467,8.87,9.97,22.45,0,110.3,13.36,9.65,302.8
"2010-05-02 00:44:00",75428,3.392,339.5,5.686,0.32,7.055,103.7256,8.81,9.94,22.37,0,110.3,13.36,9.60,301.5
"2010-05-02 00:44:30",75429,2.551,350.4,12.2,1.141,7.693,103.7197,8.8,9.9,22.93,0,110.3,13.36,9.58,312.4
"2010-05-02 00:45:00",75430,3.293,337.7,9.36,0.513,7.795,103.6997,8.75,9.87,22.91,0,110.3,13.34,9.53,299.7
"2010-05-02 00:45:30",75431,5.765,339,7.351,1.299,11.7,103.6887,8.72,10.09,23.08,0,110.3,13.33,9.50,301.0
"2010-05-02 00:46:00",75432,6.203,343.5,5.802,0.842,12.5,103.6887,8.72,10.12,22.86,0,110.3,13.34,9.50,305.5
"2010-05-02 00:46:30",75433,5.756,344.5,7.241,1.173,11.5,103.6887,8.72,10,22.47,0,110.3,13.33,9.50,306.5
"2010-05-02 00:47:00",75434,4.954,340.9,7.585,1.241,9.08,103.6887,8.72,9.97,22.1,0,110.3,13.33,9.50,302.9
"2010-05-02 00:47:30",75435,3.536,337.8,2.244,0.17,6.988,103.6887,8.72,9.78,21.96,0,110.3,13.37,9.50,299.8
"2010-05-02 00:48:00",75436,2.965,336.5,3.18,0.143,6.989,103.6887,8.72,9.79,21.93,0,110.3,13.37,9.50,298.5
"2010-05-02 00:48:30",75437,3.131,330.5,2.983,0.471,7.19,103.6909,8.72,9.79,21.51,0,110.3,13.34,9.51,292.5
"2010-05-02 00:49:00",75438,3.678,341.4,7.311,0.975,9.21,103.6968,8.74,9.96,21.39,0,110.3,13.34,9.52,303.4
"2010-05-02 00:49:30",75439,3.84,344.7,6.196,1.128,9.01,103.7104,8.77,9.8,20.98,0,110.3,13.34,9.56,306.7
"2010-05-02 00:50:00",75440,4.881,345.1,6.92,1.195,11.14,103.7217,8.8,10.08,21.12,0,110.2,13.34,9.59,307.1
"2010-05-02 00:50:30",75441,5.723,344.5,7.009,0.76,11.57,103.7225,8.8,10.01,21.02,0,110.3,13.34,9.59,306.5
"2010-05-02 00:51:00",75442,2.805,336,4.347,0.875,8.21,103.7225,8.8,9.99,21,0,110.3,13.34,9.59,298.0
"2010-05-02 00:51:30",75443,3.572,336.3,5.924,0.958,8.06,103.7225,8.8,9.83,20.87,0,110.3,13.34,9.59,298.3
"2010-05-02 00:52:00",75444,3.167,334,2.6,0.204,6.865,103.7225,8.8,9.85,20.76,0,110.3,13.37,9.59,296.0
"2010-05-02 00:52:30",75445,4.148,331.4,5.441,1.165,8.69,103.7231,8.81,9.92,20.7,0,110.3,13.34,9.59,293.4
"2010-05-02 00:53:00",75446,3.955,334.4,4.187,1.076,8.65,103.7335,8.83,9.98,20.82,0,110.3,13.34,9.62,296.4
"2010-05-02 00:53:30",75447,4.195,334.1,8.76,1.344,9.22,103.7434,8.86,9.95,20.78,0,110.3,13.34,9.64,296.1
"2010-05-02 00:54:00",75448,3.722,329.9,7.455,1.291,9.98,103.7532,8.88,10,20.85,0,110.3,13.34,9.67,291.9
"2010-05-02 00:54:30",75449,4.794,340.9,6.332,1.352,11.46,103.7563,8.89,10.2,21.06,0,110.3,13.34,9.67,302.9
"2010-05-02 00:55:00",75450,4.304,342.7,9.43,1.424,10.85,103.7563,8.89,10.09,20.98,0,110.3,13.34,9.67,304.7
"2010-05-02 00:55:30",75451,2.652,336.8,3.631,0.199,7.212,103.7569,8.89,9.95,20.86,0,110.3,13.37,9.68,298.8
"2010-05-02 00:56:00",75452,2.131,336.6,5.591,0.201,6.896,103.7735,8.93,9.95,20.81,0,110.3,13.36,9.72,298.6
"2010-05-02 00:56:30",75453,2.333,330,2.782,0.249,6.819,103.7834,8.96,9.97,21.27,0,110.3,13.36,9.74,292.0
"2010-05-02 00:57:00",75454,2.96,335.4,9.53,1.175,8.7,103.7902,8.98,10.14,21.68,0,110.3,13.33,9.76,297.4
"2010-05-02 00:57:30",75455,2.931,338,8.37,1.142,8.16,103.7902,8.98,10.02,21.53,0,110.3,13.33,9.76,300.0
"2010-05-02 00:58:00",75456,2.039,351.5,8.3,0.917,8.52,103.7775,8.94,10.15,21.38,0,110.3,13.33,9.73,313.5
"2010-05-02 00:58:30",75457,2.699,353.5,9.65,1.149,8.96,103.7563,8.89,10.01,21.8,0,110.3,13.33,9.67,315.5
"2010-05-02 00:59:00",75458,2.387,350.1,9.65,0.645,8.27,103.751,8.88,10.01,21.76,0,110.3,13.33,9.66,312.1
"2010-05-02 00:59:30",75459,3.249,2.767,19.96,1.683,10.68,103.7451,8.86,10.08,22.31,0,110.3,13.33,9.65,324.8
"2010-05-02 01:00:00",75460,3.34,6.795,17.24,1.747,10.87,103.7358,8.84,10.16,22.83,0,110.3,13.33,9.62,328.8
"2010-05-02 01:00:30",75461,0.994,353.9,19.94,0.651,7.352,103.7225,8.8,9.92,22.59,0,110.3,13.36,9.59,315.9
"2010-05-02 01:01:00",75462,1.931,323.7,11.94,0.289,6.645,103.7047,8.76,9.86,23.37,0,110.3,13.36,9.54,285.7
"2010-05-02 01:01:30",75463,3.142,317.3,8.75,1.374,8.95,103.6746,8.68,9.96,24,0,110.3,13.33,9.46,279.3
"2010-05-02 01:02:00",75464,2.957,313.1,8.19,1.122,8.57,103.6545,8.63,9.89,23.81,0,110.3,13.34,9.41,275.1
"2010-05-02 01:02:30",75465,3.714,327.2,12.8,1.619,8.95,103.6283,8.56,9.7,24.59,0,110.3,13.34,9.35,289.2
"2010-05-02 01:03:00",75466,3.091,310.5,7.594,1.273,9.33,103.6156,8.53,9.79,25.23,0,110.3,13.34,9.31,272.5
"2010-05-02 01:03:30",75467,2.477,297,5.404,0.662,7.799,103.5874,8.46,9.58,25.37,0,110.3,13.34,9.24,259.0
"2010-05-02 01:04:00",75468,3.748,287.2,21.67,1.07,11.2,103.5871,8.46,9.72,25.74,0,110.3,13.34,9.24,249.2
"2010-05-02 01:04:30",75469,2.981,212,32.1,1.417,11.08,103.5871,8.46,9.69,26.07,0,110.3,13.34,9.24,174.0
"2010-05-02 01:05:00",75470,1.124,192.9,35.35,0.871,7.297,103.5871,8.46,9.51,25.93,0,110.3,13.34,9.24,154.9
"2010-05-02 01:05:30",75471,0.343,289.7,73.45,0.242,6.198,103.5871,8.46,9.51,25.75,0,110.3,13.37,9.24,251.7
"2010-05-02 01:06:00",75472,1.127,74.25,16.09,0.452,6.465,103.5871,8.46,9.5,25.62,0,110.3,13.37,9.24,36.2
"2010-05-02 01:06:30",75473,2.248,97.8,7.315,0.861,7.263,103.5894,8.46,9.62,25.32,0,110.3,13.37,9.25,59.8
"2010-05-02 01:07:00",75474,5.173,109.2,9.51,1.021,10.33,103.6091,8.51,9.64,26.03,0,110.3,13.34,9.30,71.2
"2010-05-02 01:07:30",75475,4.236,109.8,8.48,1.258,9.48,103.621,8.54,9.76,26.46,0,110.3,13.34,9.33,71.8
"2010-05-02 01:08:00",75476,3.65,106.3,8.49,1.261,8.94,103.621,8.54,9.68,26.52,0,110.3,13.34,9.33,68.3
"2010-05-02 01:08:30",75477,5.172,133.7,6.021,1.171,11.18,103.621,8.54,9.81,26.65,0,110.3,13.34,9.33,95.7
"2010-05-02 01:09:00",75478,3.708,113,11.77,1.219,8.9,103.621,8.54,9.64,26.57,0,110.3,13.34,9.33,75.0
"2010-05-02 01:09:30",75479,3.114,111,5.99,0.19,6.845,103.621,8.54,9.57,26,0,110.3,13.37,9.33,73.0
"2010-05-02 01:10:00",75480,3.049,113.7,3.666,0.175,6.791,103.621,8.54,9.57,26.16,0,110.3,13.37,9.33,75.7
"2010-05-02 01:10:30",75481,3.04,118,5.052,0.489,7.668,103.621,8.54,9.71,26.69,0,110.3,13.34,9.33,80.0
"2010-05-02 01:11:00",75482,5.068,133,11.22,1.076,11.44,103.621,8.54,9.76,26.53,0,110.3,13.34,9.33,95.0
"2010-05-02 01:11:30",75483,4.461,134.8,11.32,1.352,9.85,103.621,8.54,9.7,26.49,0,110.3,13.34,9.33,96.8
"2010-05-02 01:12:00",75484,3.913,126.6,5.49,1.215,9.83,103.621,8.54,9.7,27.27,0,110.3,13.34,9.33,88.6
"2010-05-02 01:12:30",75485,4.226,119.2,8.62,1.31,10.36,103.621,8.54,9.84,27.58,0,110.3,13.34,9.33,81.2
"2010-05-02 01:13:00",75486,3.477,106.1,8.29,1.263,8.94,103.6207,8.54,9.63,27.28,0,110.3,13.33,9.33,68.1
"2010-05-02 01:13:30",75487,2.616,112.1,6.456,0.206,6.542,103.6184,8.54,9.57,27.54,0,110.3,13.36,9.32,74.1
"2010-05-02 01:14:00",75488,2.057,126.5,4.128,0.122,6.64,103.6145,8.53,9.58,27.42,0,110.3,13.36,9.31,88.5
"2010-05-02 01:14:30",75489,1.57,131.3,9.84,0.34,7.217,103.6035,8.5,9.56,27.08,0,110.3,13.36,9.28,93.3
"2010-05-02 01:15:00",75490,2.515,131.9,10.54,1.443,9.64,103.6029,8.5,9.74,27.12,0,110.3,13.33,9.28,93.9
"2010-05-02 01:15:30",75491,4.114,107.1,9.16,1.217,11.58,103.597,8.48,9.77,27.61,0,110.3,13.33,9.27,69.1
"2010-05-02 01:16:00",75492,2.158,91.8,7.497,0.823,8.13,103.5933,8.47,9.63,28.07,0,110.3,13.33,9.26,53.8
"2010-05-02 01:16:30",75493,3.45,102.5,10.35,1.386,10.68,103.5919,8.47,9.75,28.48,0,110.3,13.33,9.25,64.5
"2010-05-02 01:17:00",75494,3.706,102.5,8.3,1.335,10.8,103.5877,8.46,9.8,28.68,0,110.3,13.33,9.24,64.5
"2010-05-02 01:17:30",75495,3.913,92.6,3.66,0.571,7.45,103.5871,8.46,9.54,28.33,0,110.3,13.33,9.24,54.6
"2010-05-02 01:18:00",75496,3.686,96.7,1.993,0.166,6.55,103.5871,8.46,9.55,27.87,0,110.3,13.36,9.24,58.7
"2010-05-02 01:18:30",75497,4.024,92.8,6.313,0.149,6.959,103.5871,8.46,9.54,27.82,0,110.3,13.37,9.24,54.8
"2010-05-02 01:19:00",75498,5.184,95.9,9.86,1.328,9.5,103.5871,8.46,9.63,28.41,0,110.3,13.34,9.24,57.9
"2010-05-02 01:19:30",75499,6.081,101.9,7.667,1.226,11.43,103.5871,8.46,9.77,28.44,0,110.3,13.34,9.24,63.9
"2010-05-02 01:20:00",75500,6.291,94.9,6.918,1.053,12.31,103.5871,8.46,9.87,29.19,0,110.3,13.34,9.24,56.9
"2010-05-02 01:20:30",75501,5.477,97.6,6.433,1.216,11.06,103.5869,8.46,9.77,28.92,0,110.3,13.34,9.24,59.6
"2010-05-02 01:21:00",75502,4.13,90.5,7.375,0.871,7.661,103.5795,8.44,9.52,28.17,0,110.3,13.34,9.22,52.5
"2010-05-02 01:21:30",75503,4.169,94.6,3.99,0.41,6.653,103.5592,8.39,9.49,28,0,110.3,13.37,9.17,56.6
"2010-05-02 01:22:00",75504,4.256,93.8,1.894,0.164,6.953,103.5533,8.37,9.48,28.34,0,110.3,13.37,9.15,55.8
"2010-05-02 01:22:30",75505,5.417,99.1,6.718,1.359,9.06,103.5533,8.37,9.47,28.41,0,110.2,13.34,9.15,61.1
"2010-05-02 01:23:00",75506,6.011,101.6,5.8,1.41,11.25,103.5533,8.37,9.72,28.57,0,110.2,13.34,9.15,63.6
"2010-05-02 01:23:30",75507,6.42,108.5,5.363,1.117,12.81,103.5471,8.36,9.81,28.71,0,110.2,13.34,9.14,70.5
"2010-05-02 01:24:00",75508,6.072,102.5,6.463,1.237,11.4,103.537,8.33,9.68,28.41,0,110.2,13.34,9.11,64.5
"2010-05-02 01:24:30",75509,5.616,100.2,6.242,1.186,8.74,103.5203,8.29,9.47,28.18,0,110.2,13.34,9.07,62.2
"2010-05-02 01:25:00",75510,4.098,95.9,4.482,0.315,6.96,103.5224,8.29,9.4,27.91,0,110.2,13.38,9.07,57.9
"2010-05-02 01:25:30",75511,3.403,99.6,2.433,0.183,7.071,103.5181,8.28,9.39,27.93,0,110.2,13.38,9.06,61.6
"2010-05-02 01:26:00",75512,5.127,100.3,5.319,1.503,9.73,103.5011,8.24,9.53,28.08,0,110.2,13.34,9.02,62.3
"2010-05-02 01:26:30",75513,5.564,110.4,8.84,1.07,11.65,103.4926,8.22,9.55,28.14,0,110.2,13.34,9.00,72.4
"2010-05-02 01:27:00",75514,5.527,110.1,4.466,0.962,12.45,103.4952,8.22,9.61,27.89,0,110.2,13.34,9.00,72.1
"2010-05-02 01:27:30",75515,4.993,102.9,6.134,1.456,10.65,103.4877,8.2,9.56,27.85,0,110.2,13.34,8.98,64.9
"2010-05-02 01:28:00",75516,3.665,94.1,10.11,0.856,7.627,103.472,8.16,9.41,27.92,0,110.2,13.34,8.94,56.1
"2010-05-02 01:28:30",75517,4.057,87.7,4.103,0.433,6.572,103.4655,8.15,9.29,27.75,0,110.2,13.38,8.93,49.7
"2010-05-02 01:29:00",75518,4.83,94,1.968,0.429,6.872,103.4685,8.15,9.26,27.99,0,110.2,13.38,8.94,56.0
"2010-05-02 01:29:30",75519,5.651,97.1,4.629,1.271,8.31,103.454,8.12,9.28,28.26,0,110.2,13.34,8.90,59.1
"2010-05-02 01:30:00",75520,6.513,102.7,5.78,1.361,11.24,103.4436,8.09,9.52,28.64,0,110.2,13.34,8.87,64.7
"2010-05-02 01:30:30",75521,7.748,103.5,4.725,0.722,12.71,103.446,8.1,9.54,28.56,0,110.2,13.34,8.88,65.5
"2010-05-02 01:31:00",75522,7.186,103.8,7.002,0.923,11.92,103.4299,8.06,9.43,28.45,0,110.2,13.34,8.84,65.8
"2010-05-02 01:31:30",75523,5.375,93.6,5.418,0.713,7.906,103.4185,8.03,9.3,28.35,0,110.2,13.34,8.81,55.6
"2010-05-02 01:32:00",75524,5.181,95.1,2.273,0.112,6.88,103.4185,8.03,9.13,28.23,0,110.2,13.38,8.81,57.1
"2010-05-02 01:32:30",75525,6.486,100,8.72,1.421,9.16,103.4036,7.989,9.17,28.34,0,110.2,13.34,8.77,62.0
"2010-05-02 01:33:00",75526,5.822,101,6.151,1.017,9.56,103.3852,7.942,9.29,28.53,0,110.2,13.34,8.72,63.0
"2010-05-02 01:33:30",75527,7.709,107.7,4.023,0.787,13.14,103.3852,7.942,9.37,28.65,0,110.2,13.34,8.72,69.7
"2010-05-02 01:34:00",75528,7.317,107.9,3.278,0.97,12.69,103.3725,7.91,9.39,28.74,0,110.2,13.34,8.69,69.9
"2010-05-02 01:34:30",75529,7.198,103.9,5.994,1.108,11.42,103.3514,7.856,9.28,28.67,0,110.2,13.34,8.64,65.9
"2010-05-02 01:35:00",75530,5.842,93.9,4.097,0.77,7.755,103.3514,7.856,8.98,28.44,0,110.2,13.35,8.64,55.9
"2010-05-02 01:35:30",75531,5.99,97.2,6.582,1.087,8.68,103.3311,7.804,9.07,28.54,0,110.2,13.35,8.58,59.2
"2010-05-02 01:36:00",75532,5.671,98.4,5.217,1.059,8.69,103.3175,7.769,9.04,28.59,0,110.2,13.35,8.55,60.4
"2010-05-02 01:36:30",75533,7.23,104.6,5.22,1.071,12.63,103.317,7.768,9.17,28.9,0,110.2,13.35,8.55,66.6
"2010-05-02 01:37:00",75534,7.738,107.6,6.88,0.529,13.32,103.3006,7.726,9.2,29.08,0,110.2,13.35,8.50,69.6
"2010-05-02 01:37:30",75535,7.029,109.4,5.522,1.131,11.89,103.2837,7.683,9.14,28.94,0,110.2,13.35,8.46,71.4
"2010-05-02 01:38:00",75536,5.269,93.3,1.56,0.087,7.464,103.2834,7.682,8.87,29.11,0,110.2,13.39,8.46,55.3
"2010-05-02 01:38:30",75537,5.124,93.8,1.047,0.138,7.148,103.2597,7.621,8.8,29.19,0,110.2,13.39,8.40,55.8
"2010-05-02 01:39:00",75538,5.67,93.6,4.66,0.838,8.1,103.2498,7.596,8.89,29.47,0,110.2,13.35,8.37,55.6
"2010-05-02 01:39:30",75539,7.3,98,7.039,1.221,11.08,103.2498,7.596,8.94,29.35,0,110.2,13.36,8.37,60.0
"2010-05-02 01:40:00",75540,7.669,100.9,4.931,0.895,12.71,103.2299,7.545,9.04,29.5,0,110.2,13.36,8.32,62.9
"2010-05-02 01:40:30",75541,6.893,98,5.993,1.153,11.11,103.2218,7.524,8.94,29.54,0,110.1,13.36,8.30,60.0
"2010-05-02 01:41:00",75542,6.733,96.3,6.129,1.254,10.31,103.2247,7.532,8.92,29.53,0,110.1,13.36,8.31,58.3
"2010-05-02 01:41:30",75543,5.179,88.4,3.379,0.577,7.148,103.2077,7.488,8.66,29.59,0,110.1,13.39,8.27,50.4
"2010-05-02 01:42:00",75544,5.142,89.9,2.955,0.143,7.196,103.2037,7.478,8.67,29.47,0,110.1,13.4,8.26,51.9
"2010-05-02 01:42:30",75545,6.499,98.9,5.895,1.268,10.57,103.2101,7.494,8.77,29.48,0,110.1,13.36,8.27,60.9
"2010-05-02 01:43:00",75546,7.65,104.4,4.493,0.795,12.45,103.2043,7.48,8.83,29.54,0,110.1,13.36,8.26,66.4
"2010-05-02 01:43:30",75547,7.572,103.7,5.598,0.9,12.52,103.1832,7.426,8.84,29.52,0,110.1,13.36,8.20,65.7
"2010-05-02 01:44:00",75548,7,106.5,5.735,1.128,11.33,103.1832,7.426,8.75,29.48,0,110.1,13.36,8.20,68.5
"2010-05-02 01:44:30",75549,5.08,98.9,1.713,0.508,7.44,103.179,7.415,8.51,29.31,0,110.1,13.36,8.19,60.9
"2010-05-02 01:45:00",75550,5.192,103.2,4.178,0.821,7.866,103.1575,7.36,8.53,29.34,0,110.1,13.37,8.14,65.2
"2010-05-02 01:45:30",75551,5.755,103,6.733,1.175,9.02,103.1493,7.339,8.52,29.33,0,110.1,13.37,8.12,65.0
"2010-05-02 01:46:00",75552,6.7,108.5,6.08,1.224,11.74,103.1493,7.339,8.69,29.47,0,110.1,13.36,8.12,70.5
"2010-05-02 01:46:30",75553,6.732,107.9,6.068,1.004,11.88,103.1406,7.317,8.68,29.42,0,110.1,13.36,8.09,69.9
"2010-05-02 01:47:00",75554,5.048,108.4,7.707,1.029,10.97,103.1177,7.258,8.65,29.35,0,110.1,13.36,8.04,70.4
"2010-05-02 01:47:30",75555,4.76,102.7,5.749,1.139,8.85,103.1155,7.253,8.61,29.29,0,110.1,13.36,8.03,64.7
"2010-05-02 01:48:00",75556,4.643,97.5,1.798,0.167,7.218,103.1155,7.253,8.38,29.05,0,110.1,13.4,8.03,59.5
"2010-05-02 01:48:30",75557,4.93,99.2,2.123,0.167,7.388,103.1152,7.252,8.43,29.18,0,110.1,13.4,8.03,61.2
"2010-05-02 01:49:00",75558,6.72,105.4,5.432,1.288,11.61,103.1084,7.235,8.53,29.4,0,110.1,13.37,8.01,67.4
"2010-05-02 01:49:30",75559,7.06,111.6,4.737,0.876,12.78,103.0858,7.177,8.61,29.49,0,110,13.37,7.95,73.6
"2010-05-02 01:50:00",75560,7.033,114.3,4.48,0.688,12.74,103.0828,7.169,8.61,29.5,0,110.1,13.37,7.95,76.3
"2010-05-02 01:50:30",75561,6.27,117.2,9.94,0.96,11.24,103.0828,7.169,8.53,29.34,0,110.1,13.37,7.95,79.2
"2010-05-02 01:51:00",75562,4.626,105.2,4.291,0.741,7.393,103.0912,7.191,8.29,29.04,0,110.1,13.38,7.97,67.2
"2010-05-02 01:51:30",75563,4.634,102.9,3.549,0.911,7.608,103.0979,7.208,8.3,29.14,0,110.1,13.38,7.99,64.9
"2010-05-02 01:52:00",75564,5.162,104.5,5.503,1.093,8.53,103.102,7.218,8.35,29.26,0,110.1,13.38,8.00,66.5
"2010-05-02 01:52:30",75565,6.152,112.7,5.62,1.227,11.77,103.0988,7.21,8.52,29.42,0,110.1,13.38,7.99,74.7